DECAYED

STARLINK-2317, 47982 (Decayed)

Orbit data source: Space-Track

STARLINK-2317, 47982 was a payload satellite owned by SpaceX/Seattle (US) in LEO that was launched on Wed, 24 Mar 2021 UTC via an FALCON 9 launch vehicle from the Air Force Eastern Test Range (AFETR). Payload-class satellites include a variety of spacecraft equipped with specific instruments for various scientific and technological missions. These include communications satellites like Starlink; space stations such as the ISS; scientific satellites like the Hubble; Earth observation satellites from companies like Planet Labs, Umbra, and HawkEye 360; GPS; miniature CubeSats for education and research; and military/defense satellites.

Not visible in the next 10 days
Identifier
47982, 2021-024F
Orbit
Decayed
Country
Flag of USUS
Related business
Manufacturer
SpaceX/Seattle
Mission
Decayed Commercial Communications
Bus & Motor
STARLINK, Unknown motor
Mass
260 kg wet, ~248 kg dry
Launch date (UTC)
2021-03-24 (5 years ago)
Launch vehicle
FALCON 9
Launch site
Air Force Eastern Test Range (AFETR)
Object type
Payload
Rocket body
Debris
Shape & HBR
Box + 1 Pan, 10.1 m
Radar Cross Section
13.562 m², Large (>1 m²)

Expand to show TLE details & history
Last TLE update: 1 year ago

TLE from 1 year ago
0 STARLINK-2317
1 47982U 21024F   25030.99132699  .16787606  12491-4  46554-3 0  9996
2 47982  53.0190 237.9656 0007220 264.2764 251.5894 16.45037195214811
Epoch: 2025-01-30T23:47Z
TLE epoch observation values (Epoch: 2025-01-30T23:47:30.651Z)
Latitude
19.16418°
Longitude
-84.45433°
Altitude
154.346 km
Speed
7.816 km/s
True Right ascension
02h 51m 32s
True Declination
19° 02' 53"
Sunlit
Object was in daylight at epoch
Visualization orbit readout
Latitude
Unknown
Longitude
Unknown
Altitude
Unknown
Speed
Unknown
Apparent Right ascension
Unknown
Apparent Declination
Unknown
Sunlit
N/A
Visualization observer readout
Local Sidereal Time
08:17:37
Azimuth
Unknown
Elevation
Unknown
Doppler factor
Unknown
Orbital elements
Apogee altitude
157.445 km
Perigee altitude
148.014 km
Semi-major axis
6,530.867 km
Eccentricity
0.00072
Inclination
53.019°
RAAN
237.9656°
Arg. of periapsis
264.2764°
True anomaly
251.51092°
Mean anomaly
251.5894°
Eccentric anomaly
251.55016°
Mean motion
4.11232 °/min
Orbital period
87.54 mins
BSTAR
0.00046554
Loading maneuver chart data...
Computing Atmospheric mass density...

Documentation

Showing up to 5 results
|